Theta_e
339 340 341 343 343 343 345 346 346 347 347 347 347 347 347 346 346 345 345 344 343 343 343 345 346 344 344 345 345 346 347 348 348 347 346 345 342 340 340 342 341 337 337 340 342 346 348 349 350 352 351 347 343 344 346 348 350 349 348 347 346 345 344 342 336 326 322 321 320 319 318 317 318 316
339 339 339 340 342 343 345 346 346 346 346 347 347 347 347 347 346 346 346 345 344 343 343 345 347 348 348 348 348 348 349 349 348 347 346 343 339 337 338 340 338 334 335 338 342 346 349 349 350 351 352 349 346 344 344 347 350 350 349 348 347 345 344 343 339 329 323 322 321 320 319 318 318 318
340 339 338 338 340 342 343 344 344 344 344 345 346 346 346 346 346 346 346 345 344 343 343 343 344 346 347 347 347 348 348 347 346 345 343 340 337 335 336 336 334 334 336 339 343 347 349 348 348 350 351 350 347 346 343 345 349 350 349 349 348 345 344 344 341 333 325 323 322 320 320 319 319 319
341 340 340 339 339 340 341 342 341 341 342 344 345 346 345 345 345 346 346 345 344 343 343 342 342 343 344 344 345 344 344 343 342 341 340 339 337 336 335 334 334 335 339 341 344 347 348 348 347 348 349 347 347 347 343 342 346 348 349 350 348 345 345 344 343 339 331 324 322 321 320 320 319 319
342 341 341 341 341 341 341 341 341 342 343 344 344 344 343 343 344 345 345 345 344 344 344 344 343 343 343 342 342 342 341 340 340 340 340 340 339 337 336 334 335 339 341 342 345 346 347 347 347 347 347 343 345 347 343 338 341 345 348 349 348 346 346 345 344 342 338 329 324 322 321 320 320 319
342 342 341 341 341 341 341 341 341 342 344 344 344 343 341 341 342 344 345 346 345 344 344 343 343 344 344 343 342 342 341 341 340 340 340 339 338 338 336 335 336 341 342 341 343 345 345 346 346 346 343 339 343 345 341 335 337 342 346 349 348 347 346 346 345 344 343 337 328 323 322 321 320 320
342 342 341 341 341 341 341 340 341 342 343 343 343 342 340 339 341 342 344 345 346 344 342 340 341 343 343 343 342 342 341 340 339 339 338 337 337 338 337 335 337 339 339 338 341 343 345 346 346 342 336 334 336 337 335 334 335 339 344 347 347 347 346 346 347 345 345 343 336 327 322 322 321 320
341 342 341 341 341 341 340 340 340 340 341 341 342 341 341 340 339 340 342 343 345 344 342 339 339 341 341 341 340 340 340 339 339 338 337 336 336 336 337 336 336 336 335 335 337 342 344 344 343 336 330 329 329 328 329 332 334 338 343 345 346 347 346 346 347 346 345 345 342 333 325 323 322 321
340 340 340 340 340 340 340 339 340 340 339 339 338 337 338 337 338 339 340 341 342 343 342 340 339 340 340 340 339 340 339 338 337 336 335 335 335 334 334 334 334 334 333 333 335 338 340 339 337 332 329 331 330 327 327 329 332 336 341 344 345 346 346 345 345 346 346 346 345 339 329 324 323 323
336 336 336 337 337 337 336 336 336 338 338 337 335 333 332 334 336 337 340 341 342 342 341 341 341 341 342 341 339 340 341 340 338 337 336 335 334 335 334 332 332 332 331 331 331 333 335 335 334 333 331 332 332 329 326 326 329 335 339 343 345 345 345 345 344 345 345 345 345 344 335 327 324 324
333 333 333 334 334 334 333 331 331 332 332 332 330 329 329 332 336 339 340 342 343 343 344 344 344 343 343 341 339 339 341 340 340 341 340 336 335 337 338 335 334 334 332 331 330 330 332 332 335 336 331 331 332 331 327 326 328 334 339 342 344 345 345 344 344 343 344 344 344 345 341 332 326 324
332 331 331 331 331 331 330 330 330 329 329 328 327 327 329 333 339 343 344 344 345 345 345 344 344 344 342 341 339 338 339 339 338 339 339 338 337 338 339 337 338 338 336 334 332 330 330 331 334 334 330 328 331 331 329 327 327 332 339 342 343 345 345 344 344 342 342 343 343 344 343 338 330 326
335 333 332 330 330 330 329 329 329 328 328 328 327 327 329 332 337 341 342 343 344 344 344 343 342 342 340 339 338 337 337 337 336 336 336 336 336 336 336 335 336 338 339 337 335 332 331 332 332 331 328 327 329 329 329 329 328 330 336 341 344 344 344 344 343 342 341 341 342 343 344 342 336 329
340 339 338 337 336 336 335 334 332 331 330 329 328 327 328 330 332 334 335 336 337 338 339 338 338 338 336 335 336 336 336 335 335 335 335 335 334 335 335 334 333 335 338 339 336 331 330 332 331 329 327 326 327 328 329 330 330 329 330 336 341 344 344 344 343 342 341 341 341 342 343 343 340 334
343 343 342 342 342 342 341 341 340 339 337 335 332 330 329 329 330 331 331 331 331 332 332 332 333 333 333 331 331 332 332 333 335 336 338 339 339 340 340 339 336 335 338 340 338 332 330 332 331 327 325 325 326 327 328 329 330 330 329 330 333 338 341 342 342 342 341 341 342 342 342 343 343 340
344 344 344 344 344 344 343 343 343 343 343 342 341 338 337 336 335 335 334 334 333 334 334 333 333 333 332 331 332 333 334 337 339 341 342 343 344 344 345 344 342 340 340 341 340 335 332 333 333 329 325 326 327 328 330 330 330 330 330 329 328 330 333 336 340 342 341 342 343 342 342 343 343 343
344 344 344 344 344 344 344 345 344 345 345 345 345 345 345 344 343 342 342 341 340 340 340 339 338 337 336 336 338 339 341 341 343 344 344 345 345 346 346 347 346 344 343 343 343 339 332 333 334 330 326 327 330 331 331 331 331 330 330 329 327 326 327 330 336 341 342 343 344 344 343 343 343 343
344 343 343 343 343 344 344 345 345 345 346 346 346 346 347 346 346 346 346 345 345 345 344 343 343 343 342 342 343 345 344 344 345 346 347 347 347 346 347 347 347 347 345 346 346 342 334 334 336 331 328 330 332 331 331 330 331 331 330 329 327 325 325 327 333 340 343 343 344 345 345 344 343 343
345 344 343 343 343 343 343 345 345 346 346 347 347 347 347 347 347 347 347 347 347 346 346 346 345 345 345 345 345 346 346 346 347 348 349 349 349 348 348 348 348 348 347 347 348 345 339 338 340 335 330 332 333 332 332 332 332 333 332 330 328 326 325 328 333 339 343 344 344 345 345 345 345 344
346 345 345 344 344 344 343 343 344 346 346 347 346 347 346 346 347 347 347 347 347 347 347 347 347 347 346 346 346 346 346 346 347 349 350 350 350 349 349 349 348 348 348 347 349 348 344 341 343 340 336 336 335 332 332 334 335 335 333 332 330 327 326 328 334 339 342 344 345 345 346 346 345 345
346 346 346 346 346 345 344 344 344 345 346 346 346 347 347 347 347 347 347 348 347 347 348 348 348 348 347 347 348 347 347 348 348 350 351 351 351 351 350 349 348 348 349 348 348 349 345 342 345 345 342 341 338 333 331 333 336 336 335 333 332 329 327 329 333 338 340 342 344 345 346 346 346 346
346 346 346 347 346 346 346 345 345 345 346 347 347 348 349 349 349 349 349 350 350 349 350 350 350 349 348 348 349 349 349 350 350 351 352 353 353 352 351 351 350 350 350 349 349 350 347 344 346 347 347 346 342 336 332 332 334 336 336 335 333 331 329 329 332 335 336 338 340 343 345 346 346 346
347 347 347 347 347 347 348 348 347 347 348 348 349 350 351 351 351 351 351 351 351 350 351 351 351 350 349 350 350 350 350 351 352 353 354 354 355 354 353 353 353 353 352 350 351 352 350 348 349 350 351 351 347 341 336 333 333 334 335 335 334 334 332 330 330 331 331 332 335 338 343 345 346 346
351 350 350 349 349 349 349 348 349 350 350 351 351 351 352 352 352 352 351 351 352 351 351 351 351 351 351 351 351 351 352 353 354 354 354 354 355 355 355 355 355 355 354 353 353 354 353 352 351 352 353 353 351 347 342 336 333 333 332 332 333 334 334 332 330 329 330 331 332 335 338 341 344 345
352 352 352 351 351 350 350 350 350 350 351 351 351 351 352 352 352 352 352 352 352 353 352 352 352 352 353 353 353 354 354 354 354 354 354 354 354 354 355 355 356 356 355 355 355 355 355 354 353 353 353 353 352 349 345 339 336 335 333 333 332 333 334 334 333 332 332 333 334 335 336 337 340 343
351 351 351 351 351 351 351 351 351 351 351 351 352 352 352 352 352 352 352 352 353 354 354 354 354 354 354 354 354 354 354 354 354 354 354 353 353 353 353 353 354 354 354 354 355 356 356 355 354 354 354 354 353 351 348 343 339 336 335 335 334 335 335 336 336 337 337 337 338 338 338 338 338 340
351 351 351 350 350 350 350 351 351 351 352 351 351 352 352 353 353 353 352 352 352 353 353 354 354 354 355 355 354 354 354 354 353 353 353 352 352 352 352 353 353 353 353 353 354 355 355 356 356 355 356 356 355 353 352 349 346 343 340 336 335 336 337 338 338 339 340 340 341 341 342 341 340 340
349 350 351 351 351 350 350 351 351 352 352 352 351 351 352 353 354 354 354 353 353 353 353 352 353 353 353 353 353 353 353 353 353 352 351 351 351 351 352 353 353 353 354 353 353 354 354 355 355 355 356 357 357 356 354 353 351 350 347 343 337 335 336 338 340 342 342 342 342 343 344 344 344 344
340 343 345 346 347 348 350 351 351 352 353 353 352 351 351 352 352 353 353 353 354 353 353 353 353 352 352 352 352 352 352 352 352 352 351 351 351 351 351 352 352 353 354 354 353 353 354 354 354 354 355 356 357 356 355 354 353 353 352 349 345 341 338 338 340 343 344 344 344 345 345 345 345 345
331 333 334 335 337 339 341 342 345 346 348 349 349 349 349 350 350 351 351 352 353 353 353 353 353 353 353 353 353 352 352 352 352 352 352 351 350 351 352 352 351 351 352 353 353 353 354 354 354 354 354 355 355 355 355 355 354 354 354 353 352 349 345 342 340 341 344 346 348 348 348 348 347 347
327 327 328 328 329 330 331 332 335 337 339 340 342 343 344 345 345 346 347 348 350 351 352 352 353 353 353 353 353 353 353 353 353 353 353 352 351 352 353 352 351 351 352 353 353 353 353 353 353 353 353 354 354 355 355 355 355 355 355 355 354 352 350 348 345 343 343 346 348 349 349 349 348 348
326 326 327 328 329 329 329 329 330 331 332 334 336 337 338 339 340 341 342 343 345 346 347 348 349 350 351 352 352 353 353 354 353 353 354 354 353 352 352 352 352 352 353 353 353 353 353 353 353 353 353 354 354 355 355 355 355 355 354 354 354 353 352 351 349 347 345 345 345 344 345 345 346 347
325 326 327 327 328 327 328 328 328 328 328 329 331 332 334 335 337 339 341 342 343 344 344 345 346 347 348 349 350 350 351 353 353 354 354 354 354 353 352 352 352 353 353 353 353 354 355 355 355 355 355 355 355 355 355 355 354 354 353 353 353 352 352 351 350 349 348 346 344 342 341 341 341 343
325 326 326 326 326 327 327 328 328 328 328 329 329 330 332 335 337 339 340 342 343 343 344 344 345 346 347 348 348 348 348 349 350 351 352 353 354 353 352 352 352 353 353 354 354 355 356 356 357 356 356 355 355 355 354 354 353 353 352 352 352 351 351 351 351 351 350 348 347 345 344 342 340 340
323 324 325 325 326 326 327 327 327 328 328 328 328 328 330 334 337 340 341 342 342 344 344 344 344 344 346 347 347 347 347 347 348 349 349 350 351 352 352 352 352 351 352 352 353 354 355 356 356 356 355 355 354 353 353 352 352 351 351 350 350 350 351 351 351 352 352 352 351 350 348 345 342 341
318 320 322 323 324 324 325 326 326 326 326 326 326 326 326 329 333 337 340 341 342 343 343 343 342 342 344 346 346 345 346 347 348 348 348 348 349 350 350 350 350 351 351 350 351 352 352 353 353 354 355 355 354 353 351 349 349 349 349 350 350 350 350 351 351 351 352 353 353 352 351 349 346 344
315 316 316 317 317 318 319 320 321 322 323 323 323 323 323 324 327 330 334 336 338 340 341 341 341 341 343 345 346 346 345 346 348 349 350 349 350 350 350 349 349 349 349 350 350 350 350 350 351 352 353 354 354 354 352 350 350 350 349 349 350 350 350 350 350 351 352 352 352 353 353 352 350 348
313 313 313 313 314 314 314 315 315 316 317 318 319 319 320 320 321 323 325 327 329 332 334 335 337 339 341 341 343 345 346 346 347 348 347 348 349 350 350 350 350 349 350 350 350 351 351 351 351 352 353 353 353 354 354 353 352 352 351 350 349 350 349 349 349 350 350 351 352 352 353 353 352 351
313 313 313 313 313 313 313 313 313 314 314 314 315 315 316 317 318 319 320 321 322 324 325 326 328 331 333 334 337 340 342 343 345 345 344 345 347 349 349 349 350 351 351 352 351 351 352 352 352 352 353 352 353 353 354 354 353 352 352 350 348 348 349 349 349 350 350 351 351 352 352 352 351 351
314 314 314 314 313 313 313 313 313 313 313 313 313 314 314 314 315 316 317 319 320 320 321 322 323 324 325 327 330 332 334 336 339 341 344 345 346 347 348 348 348 349 350 351 351 351 351 351 351 351 351 351 352 352 353 353 352 351 351 351 349 347 349 350 349 349 351 352 352 352 352 352 352 351
314 314 314 314 314 314 314 314 314 314 314 314 314 314 313 313 314 314 315 316 317 318 319 320 321 321 322 323 324 326 327 329 331 334 338 341 344 346 347 347 347 347 348 348 349 350 350 349 349 350 349 349 350 351 351 352 352 351 350 351 350 349 349 349 349 348 348 349 351 352 353 353 353 353
314 314 314 314 314 314 313 313 313 313 314 314 314 314 314 314 314 314 314 314 314 315 316 317 319 320 321 321 322 322 323 325 326 328 330 332 336 341 344 344 345 346 347 347 347 348 349 348 347 347 348 348 348 349 350 351 351 351 349 349 349 349 348 348 348 346 345 346 350 352 353 353 353 353
313 313 313 313 313 313 313 313 313 313 313 313 313 314 314 314 314 314 314 314 314 314 315 315 316 317 318 319 321 321 322 322 323 324 325 327 328 331 334 336 337 339 341 343 345 346 347 347 347 347 346 347 347 348 348 350 351 351 351 349 350 350 349 348 348 346 346 347 350 352 353 353 353 353
311 311 311 311 311 311 311 311 311 312 312 312 312 313 313 314 314 314 314 314 314 314 314 314 315 316 316 317 318 320 321 322 322 323 323 324 325 327 328 329 329 330 332 335 337 339 341 344 346 347 346 346 347 347 347 348 349 350 351 351 351 351 351 351 350 350 349 350 351 352 353 353 353 353
310 310 310 309 309 310 309 309 309 310 310 310 311 311 312 312 313 313 313 314 314 314 314 314 315 315 315 316 317 318 319 320 321 322 322 323 324 325 326 326 327 328 328 329 330 331 332 336 340 344 345 346 346 346 346 347 347 348 349 349 350 351 352 352 351 352 351 351 351 351 352 353 353 353
Wind_Speed
10 11 11 11 10 10 10 8 7 6 6 6 6 7 8 9 10 11 12 13 13 12 11 10 10 9 9 9 10 11 12 13 14 15 17 19 20 20 20 20 19 20 21 20 18 17 17 16 16 17 17 18 19 18 18 19 21 22 23 23 23 24 27 27 26 26 26 24 22 22 22 22 23 24
11 11 11 10 10 11 11 10 10 9 9 9 9 9 9 10 11 11 12 13 13 11 9 7 8 8 8 9 10 11 12 14 15 17 18 19 20 20 20 20 20 21 21 19 17 16 17 16 16 16 17 18 19 19 18 18 19 21 22 22 22 22 25 26 25 25 25 24 22 21 21 21 23 24
10 10 10 10 10 11 12 12 12 13 13 13 12 11 11 12 12 12 13 13 13 12 9 8 8 9 9 9 10 11 13 15 16 18 20 20 19 19 19 19 20 20 19 17 16 16 16 16 15 15 16 17 19 19 19 18 18 19 20 21 20 21 22 24 25 24 24 24 23 21 21 21 22 23
10 10 9 9 9 11 12 13 13 14 14 14 14 14 14 14 13 13 13 15 15 13 11 9 8 9 11 12 12 13 14 16 17 18 18 18 19 19 19 19 19 17 16 15 15 15 15 15 15 15 16 17 18 19 19 18 17 18 19 19 19 19 20 22 24 24 24 23 23 22 20 20 21 21
9 9 9 9 9 10 10 11 11 12 12 13 13 14 15 14 14 14 14 15 16 14 12 11 10 10 12 12 13 14 15 15 16 16 15 16 17 18 18 17 16 15 14 15 15 15 15 15 15 16 17 17 18 19 19 18 16 16 17 17 17 17 19 20 22 23 23 23 23 22 21 20 20 20
8 8 8 7 8 9 9 9 8 9 9 11 11 12 13 13 13 14 14 15 17 16 14 13 12 11 12 13 12 13 15 15 15 15 15 15 16 16 16 16 14 13 14 15 15 16 16 16 16 17 17 18 18 19 19 17 15 15 15 15 14 15 17 18 20 21 23 23 22 22 21 20 19 19
8 8 8 7 7 8 9 8 8 8 8 9 10 11 11 12 12 13 14 15 17 18 17 15 14 13 13 14 13 14 15 15 15 15 15 15 15 14 15 15 14 14 15 16 16 16 16 16 17 17 17 18 18 18 17 16 14 14 13 13 13 13 15 17 18 19 21 22 21 21 21 20 19 19
10 10 9 8 8 9 10 9 9 8 9 9 10 10 11 11 12 13 14 16 17 19 19 17 15 15 15 15 14 15 15 15 15 15 15 14 13 13 14 14 14 15 16 16 15 15 16 17 16 16 16 17 18 17 16 14 14 13 12 12 12 12 14 15 17 18 19 20 20 20 19 20 19 18
12 11 11 9 9 10 11 11 10 10 10 10 10 11 11 11 12 13 14 15 17 18 19 17 15 14 14 14 13 14 15 15 14 14 14 13 13 12 12 13 13 15 15 15 15 15 15 16 15 15 16 17 18 17 15 14 14 12 11 12 11 11 12 14 15 17 17 18 19 19 18 18 18 18
13 13 12 12 11 12 12 12 12 12 12 12 12 11 11 11 11 12 12 13 14 15 15 15 14 13 13 14 14 13 15 16 16 15 15 13 12 13 13 13 14 15 16 15 15 14 15 15 15 16 17 18 18 16 14 14 14 12 11 11 12 11 12 13 14 15 16 17 17 17 17 17 17 17
14 14 13 13 13 13 13 13 13 13 13 13 12 11 11 11 11 11 10 10 11 12 13 14 15 15 15 15 15 14 16 17 17 18 19 17 14 16 17 17 17 18 18 17 17 16 16 15 15 17 18 18 17 16 14 14 14 13 12 11 12 12 12 12 13 13 14 15 15 16 16 15 16 16
15 15 14 14 14 14 14 14 13 13 13 13 12 11 11 11 12 11 11 11 12 13 15 15 16 16 17 16 16 16 17 18 18 19 21 21 19 19 20 20 20 21 21 20 19 19 19 18 18 19 19 18 17 15 14 14 14 13 12 12 12 13 13 12 12 12 12 12 13 14 15 14 14 15
14 14 14 15 14 14 15 15 15 15 15 15 14 12 11 12 13 13 14 15 15 16 17 17 17 18 19 19 18 19 19 19 19 19 21 23 22 23 22 20 19 21 22 22 21 20 20 21 21 21 21 18 16 15 14 14 14 13 13 13 14 14 13 12 12 11 10 10 11 12 13 13 13 13
13 12 13 13 13 13 14 14 15 15 16 16 17 15 14 13 14 15 16 17 17 18 19 19 19 21 21 21 21 22 21 20 21 22 23 24 24 23 24 23 20 20 22 24 24 22 21 22 23 23 21 19 17 16 15 15 14 14 14 14 15 15 14 13 12 10 9 9 9 10 11 12 12 12
15 15 14 14 14 14 14 14 14 14 15 16 16 17 17 16 16 17 18 18 18 19 20 21 21 22 24 23 23 24 24 23 24 24 24 24 24 24 25 25 24 22 23 26 27 25 22 22 23 22 20 18 17 17 16 16 16 16 15 15 16 16 15 14 12 10 8 8 8 9 9 10 10 10
18 18 18 17 17 16 15 14 14 14 14 14 14 15 15 15 16 17 18 19 19 20 21 22 22 23 24 24 23 23 24 24 25 25 24 25 25 25 26 27 26 24 24 26 29 28 25 23 23 21 18 16 15 15 16 16 17 17 16 16 16 17 17 15 13 11 9 7 7 8 8 9 9 9
21 21 21 20 19 18 16 16 16 15 15 14 14 15 15 15 15 16 17 18 19 20 21 23 23 22 22 24 23 22 23 25 26 27 27 26 27 28 28 28 28 26 25 26 28 30 28 23 23 22 18 15 15 15 15 16 17 18 18 17 17 17 17 16 14 12 10 8 7 7 8 8 9 8
22 22 21 21 21 20 19 19 18 17 17 17 18 18 18 18 17 17 18 18 19 20 21 23 23 21 21 23 23 21 23 25 27 27 28 28 28 29 29 29 29 27 25 25 27 32 30 25 24 24 20 18 17 15 15 16 17 17 18 17 17 17 17 16 14 12 11 9 8 8 7 8 8 9
24 23 22 22 22 21 21 20 19 19 19 20 20 20 20 20 20 20 20 19 20 21 22 24 24 23 22 23 24 23 23 25 26 27 28 28 28 29 30 30 30 28 26 24 27 32 32 27 27 26 22 21 20 17 16 17 17 18 18 18 17 17 17 16 14 12 12 11 10 9 8 8 8 8
25 25 24 24 23 23 23 22 21 22 22 23 23 23 22 23 23 23 23 22 23 24 24 26 26 26 25 25 25 24 23 24 25 26 28 29 29 30 31 32 31 30 28 26 27 32 34 31 30 29 25 23 22 19 17 17 16 18 19 19 18 18 17 17 15 13 13 13 12 12 11 10 9 8
27 26 25 25 25 25 25 25 24 25 26 26 26 26 26 26 27 27 26 26 26 27 27 28 29 29 28 27 26 25 23 23 23 26 29 29 28 30 32 33 33 32 30 29 28 32 35 33 31 30 28 27 25 21 19 17 15 16 18 18 19 18 18 17 16 16 15 15 14 14 13 12 11 10
29 28 28 27 27 27 26 26 26 26 27 27 27 28 28 29 30 30 29 29 29 29 29 29 29 29 29 28 28 27 25 24 23 26 29 28 28 30 32 33 33 33 34 32 29 31 34 32 30 31 31 32 29 24 20 18 16 16 16 16 17 18 18 18 18 18 17 17 16 15 15 15 14 12
30 30 30 29 29 29 28 28 27 27 28 29 29 30 30 31 32 32 30 29 29 29 29 29 29 29 28 28 28 28 27 25 25 26 28 27 27 29 31 31 31 33 35 33 29 30 32 32 30 30 31 34 34 29 23 20 19 17 16 16 17 17 18 19 19 19 19 19 18 17 16 16 16 15
29 29 28 28 28 29 29 30 30 29 29 30 30 30 31 32 32 31 30 29 28 29 29 28 28 28 28 28 29 29 28 27 26 27 28 28 27 28 30 30 29 31 33 31 29 30 31 30 30 29 29 31 35 34 30 26 23 20 19 18 18 17 19 20 20 20 19 19 19 19 18 18 18 17
27 27 26 26 27 27 28 28 29 29 29 30 30 30 30 31 31 30 29 28 27 27 27 27 26 27 27 27 28 29 29 29 28 28 29 29 29 29 30 30 31 32 32 29 27 29 29 28 28 28 28 29 33 35 35 33 29 24 22 21 20 19 19 21 21 20 20 20 20 20 20 20 19 18
26 26 26 26 26 26 26 26 26 27 27 27 28 28 28 28 29 29 29 28 27 26 26 26 26 26 27 28 28 29 30 29 29 29 29 29 29 29 30 31 33 35 34 30 28 29 30 29 28 28 28 30 31 34 36 37 34 30 26 24 23 21 21 21 22 22 22 21 21 21 21 21 21 20
22 23 24 25 26 26 25 25 24 24 25 25 25 25 25 26 27 27 28 28 28 27 27 26 27 27 27 28 28 29 30 29 29 29 29 29 29 29 30 31 33 35 35 32 30 31 31 31 30 29 29 30 32 34 36 38 37 35 32 29 26 25 25 24 24 24 24 24 24 23 23 23 23 22
18 19 20 22 23 24 23 22 21 21 22 24 25 25 25 25 26 26 27 28 29 29 29 29 29 29 29 30 30 31 31 31 31 31 30 30 29 29 30 31 33 35 35 33 31 31 32 32 32 31 30 30 32 34 37 38 38 38 37 35 32 30 28 28 27 26 25 25 26 25 25 25 24 24
16 16 17 18 20 20 20 20 20 21 21 23 24 26 27 27 27 26 26 27 28 29 30 30 31 31 31 31 31 32 32 32 33 32 31 30 29 30 32 33 33 35 35 34 32 31 31 31 30 29 29 30 31 33 35 37 38 39 38 38 38 35 32 31 31 29 28 28 28 28 28 27 26 27
12 12 13 14 15 16 17 17 18 20 21 22 24 27 28 28 28 27 26 26 27 28 29 30 30 30 30 30 30 30 30 31 31 31 30 30 30 30 32 34 35 35 35 34 32 31 30 30 28 26 27 28 30 32 32 34 37 38 36 36 38 38 37 35 34 32 31 30 29 29 29 28 28 28
12 12 12 12 13 13 13 14 14 15 16 18 20 21 23 24 25 24 24 24 25 26 27 28 28 28 29 30 30 29 30 30 29 29 29 30 30 31 32 34 35 35 33 31 30 29 28 27 25 24 25 27 30 32 32 33 37 38 37 35 35 38 38 37 37 36 34 32 32 32 32 32 31 31
14 13 13 12 12 12 12 13 13 13 14 14 15 16 17 18 18 19 19 19 20 22 23 25 27 28 29 30 30 29 29 29 28 28 29 29 29 30 31 32 34 34 31 29 28 26 25 24 22 23 25 27 30 32 32 33 36 38 37 36 36 37 38 38 38 38 36 36 38 38 37 36 35 34
15 15 15 15 15 15 14 14 15 15 15 16 15 15 15 16 16 16 16 16 16 17 19 21 24 25 27 28 29 28 28 28 27 26 27 28 28 29 30 31 32 32 31 29 27 24 23 21 20 22 25 28 30 31 32 34 37 37 36 36 36 37 38 37 36 36 35 37 40 40 39 38 37 36
16 16 16 17 17 17 17 17 17 17 17 18 18 17 16 15 15 15 16 16 17 17 18 19 21 22 23 25 26 26 27 28 27 27 27 27 28 28 30 31 32 32 31 30 28 26 25 22 20 21 24 27 30 32 32 33 36 36 35 34 35 36 37 35 33 32 32 32 35 38 39 39 37 36
18 18 18 18 18 18 18 18 19 19 19 20 20 20 18 16 15 15 15 16 17 17 18 19 21 22 23 24 25 26 27 27 26 26 25 26 28 28 30 32 33 33 32 32 29 27 26 25 23 22 24 26 30 34 34 33 33 35 35 34 34 34 35 32 30 29 30 28 29 33 37 39 37 35
21 21 21 21 21 20 21 21 21 21 21 22 22 22 22 20 18 17 17 18 19 20 20 21 23 24 25 25 25 26 27 27 27 26 25 26 27 29 30 31 33 35 35 34 32 29 27 27 25 25 27 28 31 36 37 33 31 32 33 33 32 31 31 29 28 28 29 28 28 29 32 36 37 34
22 23 23 24 24 24 24 24 24 24 24 24 24 24 25 24 23 22 22 22 22 23 24 24 24 24 25 25 25 26 27 26 25 25 26 27 27 29 31 31 32 33 34 34 34 31 29 29 27 27 28 29 31 36 38 34 31 30 30 30 31 30 30 29 29 29 29 29 29 29 29 31 33 31
22 23 24 25 26 26 27 27 27 26 26 26 26 26 26 26 26 26 25 25 25 26 25 25 24 24 24 25 26 28 29 28 26 25 27 28 28 29 31 32 32 32 33 34 34 32 31 31 30 27 27 28 31 35 36 35 33 30 29 29 30 30 30 31 31 31 31 30 31 31 30 29 30 29
21 21 22 23 24 26 27 27 28 28 27 27 27 27 27 27 28 28 28 28 28 28 28 27 27 26 25 25 26 28 30 32 32 32 32 31 30 29 30 31 30 31 32 33 34 32 32 32 31 28 28 29 31 32 32 34 36 34 31 31 31 29 30 31 31 31 31 30 30 31 31 30 30 29
22 22 22 22 23 24 25 26 27 28 29 29 29 29 29 28 28 29 29 30 30 29 29 29 29 29 29 28 28 29 30 31 32 32 33 32 30 30 31 30 29 29 30 32 33 33 32 30 30 29 28 29 31 30 30 33 39 39 36 35 33 30 29 29 30 31 31 29 29 31 31 31 30 29
23 24 24 24 24 24 25 26 28 29 29 30 30 30 30 30 30 30 30 30 31 31 31 31 31 31 31 31 31 31 31 31 31 30 31 32 32 32 32 32 31 30 29 29 31 34 33 31 29 29 29 28 28 29 30 34 39 42 41 39 36 33 30 29 30 32 32 30 29 30 31 31 31 31
24 24 25 25 26 26 26 27 28 29 30 31 32 32 32 32 32 32 32 32 32 32 33 33 33 33 33 33 33 33 33 33 33 32 31 31 33 35 35 34 33 32 30 28 30 34 35 34 31 30 30 29 28 29 33 36 38 41 41 39 36 34 31 30 30 32 33 32 30 31 31 30 30 32
23 24 25 26 27 28 28 29 29 29 30 32 33 34 34 34 34 34 34 35 34 34 35 35 35 35 35 34 34 35 35 35 36 36 34 31 31 34 37 37 37 36 35 34 36 38 39 39 35 31 30 30 30 30 33 35 36 38 39 39 36 33 32 31 31 32 34 33 32 31 31 30 31 33
23 24 25 27 28 30 31 32 32 32 32 32 33 34 35 36 36 36 36 36 37 36 36 36 37 37 37 37 36 36 36 36 37 37 37 35 33 34 36 37 38 39 39 39 40 42 42 42 39 34 31 31 32 31 32 35 36 37 37 38 37 35 34 33 32 32 33 34 33 32 30 31 32 33
23 24 26 28 30 31 33 33 34 34 33 33 33 34 35 36 36 37 37 37 38 38 38 38 38 38 38 39 39 39 38 38 38 38 38 37 36 36 36 37 37 38 39 40 40 42 43 44 42 39 34 34 35 34 33 34 36 37 38 39 39 39 39 37 35 34 35 35 34 32 30 30 30 31
Wind_Direction
245 247 248 247 242 237 237 245 255 262 273 286 298 309 316 321 324 325 323 322 325 329 329 326 323 317 311 305 300 300 303 307 311 316 321 325 326 325 327 330 333 336 338 338 337 339 343 346 347 349 353 358 357 353 352 358 3 3 2 1 2 6 8 9 13 16 18 20 23 24 23 21 20 17
246 249 251 249 244 240 241 249 260 267 272 279 287 295 302 308 313 318 320 320 320 321 321 316 310 306 304 304 300 297 297 300 304 309 312 315 318 319 321 325 331 334 334 332 332 334 338 341 342 343 346 352 353 350 348 351 358 1 1 0 1 4 8 9 12 16 18 20 23 25 25 23 22 21
245 247 250 251 247 245 247 254 265 273 275 277 281 287 294 298 301 305 309 310 311 310 305 298 291 286 285 290 294 294 296 298 301 303 306 308 312 315 318 322 328 331 329 327 327 331 335 338 339 338 340 346 348 346 344 346 352 357 359 358 359 2 6 8 10 15 18 19 22 25 26 25 25 24
244 243 245 248 248 248 251 257 266 273 274 275 278 282 287 289 290 294 297 299 301 302 300 296 291 285 281 279 282 287 290 294 298 301 305 308 312 314 316 320 324 325 322 321 323 327 331 335 336 335 337 342 343 342 341 340 344 352 355 356 357 359 3 7 9 12 16 19 21 23 27 27 27 28
243 243 243 243 245 249 252 257 265 271 276 277 279 280 282 282 282 284 289 294 297 300 300 300 299 296 291 286 284 286 288 292 296 300 304 307 310 312 314 316 318 317 314 315 317 320 324 328 332 333 336 338 338 337 338 337 339 347 351 352 354 356 359 4 8 10 13 17 20 22 26 28 28 30
249 253 252 249 250 253 254 257 264 272 277 279 280 282 282 282 279 279 284 289 294 299 302 304 304 303 299 297 297 297 297 299 299 299 301 303 307 311 313 313 312 309 307 309 311 315 318 322 327 330 331 333 333 333 334 334 337 343 347 348 350 352 355 359 4 8 10 14 18 21 24 27 28 30
250 255 258 257 257 260 260 261 263 268 273 275 277 281 285 287 282 279 280 283 288 293 299 303 305 306 304 305 308 309 308 309 309 306 305 306 309 312 312 311 310 308 306 306 307 310 314 318 322 325 328 331 332 332 332 331 334 339 342 343 344 347 350 353 357 3 7 11 14 19 22 26 28 29
256 256 257 260 262 264 264 265 265 266 267 269 272 276 281 286 286 281 279 280 283 288 295 301 304 306 307 310 313 314 314 314 314 313 314 315 313 311 310 310 310 307 306 307 307 308 310 312 315 319 326 333 335 335 332 329 331 333 334 337 338 340 344 348 351 356 2 7 11 15 20 25 27 28
261 261 262 264 265 267 270 272 274 274 274 274 274 276 280 283 283 281 279 280 283 286 293 300 305 308 310 313 316 319 320 320 320 322 324 322 319 316 312 308 307 305 304 305 306 305 306 307 309 316 324 331 336 337 332 328 327 324 324 330 332 333 337 342 346 350 355 2 7 11 16 23 28 28
259 260 262 264 266 268 273 278 280 281 281 280 279 280 282 281 277 273 272 276 280 284 291 298 303 308 311 312 314 319 322 322 326 330 329 326 328 330 324 315 313 311 307 304 303 303 303 303 305 311 317 323 329 332 331 328 325 317 316 324 328 329 332 335 340 345 350 357 4 8 11 18 27 28
263 264 264 266 266 267 272 276 278 278 279 280 283 285 285 279 270 265 265 268 275 282 288 292 297 301 304 305 307 312 316 317 321 325 324 321 326 331 329 326 325 322 316 310 305 301 299 298 298 301 308 314 320 324 326 326 322 313 310 316 320 324 328 330 334 339 346 354 1 6 9 13 22 28
268 268 269 270 271 272 274 277 278 278 277 277 277 280 282 277 268 265 267 271 277 283 288 291 295 298 299 300 301 305 309 312 314 317 318 317 319 321 321 323 325 324 321 317 311 305 299 295 293 295 301 308 312 315 318 321 319 312 307 308 312 316 321 324 327 332 340 351 360 5 8 10 16 23
272 272 272 272 274 276 278 280 281 280 281 280 278 276 275 271 267 268 271 275 280 285 288 290 293 296 298 299 302 303 305 308 310 312 314 314 315 314 313 313 316 318 318 316 312 308 304 299 295 294 299 304 306 307 309 311 312 309 304 303 304 308 314 317 318 322 332 346 358 3 7 9 11 16
277 278 278 278 280 282 282 282 282 282 282 282 281 279 277 273 272 273 275 278 281 284 287 290 294 297 297 298 300 303 304 306 308 310 312 312 312 313 311 309 306 309 313 314 309 306 306 305 300 296 297 300 301 301 300 299 300 300 298 297 298 300 305 309 310 311 320 336 352 1 3 6 7 10
279 281 282 284 285 287 289 290 290 289 287 284 283 282 281 280 279 278 279 281 283 286 288 291 294 296 297 298 300 302 304 307 309 310 312 313 315 316 316 313 309 309 312 311 307 304 307 307 303 300 298 299 299 297 293 291 290 290 291 290 290 291 296 301 302 300 306 324 342 355 360 2 3 5
274 276 278 280 281 282 285 287 289 291 291 290 289 287 285 284 283 283 284 286 287 289 290 292 294 296 298 300 302 304 307 309 310 311 312 313 314 314 314 312 310 310 310 309 305 302 303 306 305 303 301 301 301 298 293 289 285 284 284 284 282 283 286 291 293 290 293 308 328 345 354 356 358 360
272 273 275 276 276 277 278 280 283 285 286 288 289 290 288 285 284 285 286 288 290 291 292 293 294 297 299 300 302 306 309 309 309 310 309 310 309 308 307 306 305 306 306 306 303 298 299 304 303 300 302 306 305 301 295 290 285 282 281 279 277 277 279 283 284 280 280 292 309 327 342 349 351 351
272 273 275 276 275 275 275 277 279 281 284 287 288 288 287 284 283 283 284 285 287 289 291 292 294 296 296 298 301 304 306 306 307 308 306 305 303 301 301 300 301 302 301 302 300 295 295 300 299 297 301 305 303 300 294 290 286 283 280 276 273 271 273 277 277 271 270 278 291 305 321 336 343 343
273 274 275 276 274 273 272 272 275 278 282 285 285 284 283 282 281 280 279 281 283 284 286 287 289 290 290 291 294 297 299 301 302 303 302 300 299 297 296 296 296 297 297 299 297 293 292 296 296 296 299 302 300 296 292 291 289 284 279 274 271 268 269 272 270 264 263 270 279 288 299 314 328 334
271 272 273 275 274 272 270 268 270 274 279 281 281 280 280 279 279 278 277 279 280 280 281 282 283 285 286 287 288 290 293 296 299 299 297 296 296 296 293 292 292 293 295 296 295 292 291 293 296 297 299 299 296 291 291 295 292 284 280 276 273 268 266 266 266 262 261 264 271 277 283 293 304 315
269 270 271 273 274 274 272 268 268 272 276 278 277 277 278 279 280 281 283 284 282 280 279 279 280 281 282 283 284 285 287 291 296 297 295 296 297 295 292 290 291 292 292 292 293 292 291 293 297 299 298 297 293 289 289 292 289 285 285 283 278 271 264 262 262 262 263 264 266 269 273 278 285 293
268 269 271 273 274 275 274 272 269 270 272 274 275 277 279 280 283 289 293 292 288 283 280 278 277 277 278 280 281 281 282 285 290 292 294 297 298 293 290 291 293 292 291 291 292 291 291 294 297 299 299 298 295 290 286 285 284 285 287 286 282 274 265 260 260 261 264 266 265 265 267 270 274 279
268 269 269 270 272 273 274 274 272 272 272 273 276 279 281 283 288 293 295 293 289 286 283 280 278 277 277 279 280 280 280 282 284 286 290 295 295 292 291 291 292 292 292 294 295 292 292 295 296 297 301 302 299 296 292 286 283 282 281 282 282 276 267 261 260 262 264 265 265 264 265 266 268 271
268 269 270 270 271 271 273 274 274 275 275 276 279 281 283 286 290 292 292 291 290 288 285 284 282 281 281 282 282 283 283 284 285 287 290 293 293 293 292 292 292 290 290 294 296 294 293 295 295 296 300 300 299 298 296 289 284 281 278 277 277 275 270 264 262 262 263 263 264 265 265 265 266 267
269 269 270 270 271 271 272 274 275 276 277 278 280 282 284 286 287 288 289 290 291 288 286 285 284 284 284 285 286 287 288 290 292 294 295 295 294 292 291 291 292 290 289 292 294 293 292 293 293 295 297 297 296 297 296 291 285 281 278 275 273 271 269 266 264 262 262 262 263 265 267 268 266 265
275 275 274 273 272 271 271 272 273 274 276 277 278 281 283 284 284 284 285 288 289 288 286 285 283 284 285 286 288 290 291 292 294 295 295 294 292 290 288 288 289 289 289 290 291 290 289 289 290 292 295 296 297 297 295 292 288 285 281 276 272 269 266 264 263 263 262 262 263 264 266 267 265 264
280 281 282 282 281 280 279 279 279 279 279 279 280 281 281 283 284 284 285 286 287 287 286 285 285 285 286 286 287 288 289 291 291 291 291 291 290 289 288 288 288 288 288 288 287 286 286 287 288 289 291 294 296 295 293 292 292 291 287 281 275 270 267 265 264 264 263 263 264 264 264 264 264 265
282 280 280 281 282 283 284 284 284 283 284 286 288 287 286 286 287 288 288 288 288 288 288 289 289 288 289 289 290 290 291 291 290 289 289 288 288 288 288 288 287 286 286 284 281 282 284 285 287 288 289 290 291 291 291 292 293 292 291 287 280 273 270 268 266 266 267 267 267 266 266 266 267 267
292 289 287 286 286 286 285 283 282 280 281 285 287 289 289 288 288 287 288 289 290 290 291 291 292 292 292 293 292 292 293 292 291 290 289 289 288 289 289 289 288 287 287 284 279 278 279 282 285 287 287 286 287 288 290 292 292 292 292 291 287 281 276 271 268 267 268 268 269 268 269 269 269 268
298 297 296 295 294 294 293 291 290 288 286 285 286 287 288 289 289 288 287 287 288 290 292 294 294 294 295 294 294 293 292 291 291 290 290 290 291 291 293 293 290 288 289 287 281 277 277 279 284 285 283 284 285 286 289 291 291 290 291 293 292 288 283 277 273 269 268 268 270 271 272 272 271 269
296 298 299 300 300 302 303 303 302 299 295 292 291 290 289 289 290 291 290 287 285 286 290 292 294 295 296 296 295 294 292 290 291 292 291 291 292 294 297 297 293 291 292 290 285 281 280 281 284 284 283 283 283 284 288 290 289 290 292 293 293 291 289 285 279 274 270 270 271 270 271 272 271 270
302 304 304 302 301 301 300 300 300 300 299 298 297 297 297 296 295 296 295 292 289 287 287 288 290 292 293 293 294 295 292 290 291 293 292 291 291 294 297 297 294 293 294 293 289 287 285 286 288 286 285 284 283 285 288 289 289 291 293 294 294 294 293 291 286 281 276 273 271 270 270 271 271 270
309 310 309 307 305 304 303 302 301 300 300 301 302 305 307 308 308 308 307 305 302 298 295 293 293 294 294 293 294 294 292 290 291 293 293 292 291 292 294 294 292 292 295 295 294 294 295 295 294 291 288 286 285 286 288 289 289 291 293 295 296 295 294 294 292 288 283 277 273 272 271 270 269 268
310 311 312 313 313 313 313 312 310 309 307 306 306 307 308 309 310 312 313 310 307 305 304 303 303 303 303 303 303 301 297 293 291 290 290 291 291 290 291 292 292 292 294 296 297 300 302 302 298 294 291 289 287 286 287 289 291 293 295 296 295 294 295 296 297 295 290 284 280 277 275 271 268 267
310 311 313 314 314 314 315 315 314 313 312 310 309 307 304 301 300 301 302 302 303 305 306 307 307 307 307 306 306 307 306 302 297 292 289 288 289 288 288 289 290 292 294 296 296 300 304 304 301 296 293 291 290 287 286 288 292 296 298 297 294 294 295 298 299 299 296 293 288 284 280 276 271 267
309 309 310 311 311 311 311 311 311 312 313 313 311 309 306 302 297 294 293 292 293 295 296 298 301 302 301 300 301 304 304 303 300 297 293 291 290 289 288 286 287 289 291 293 294 297 300 302 302 300 296 294 293 291 288 290 295 299 298 297 296 296 297 299 299 298 297 297 294 290 287 283 278 274
308 309 309 310 310 310 310 309 309 309 310 310 310 310 308 306 302 298 294 292 291 290 290 292 293 293 293 294 297 299 299 299 298 297 297 297 297 296 295 291 289 290 291 292 295 298 299 299 300 300 296 294 293 292 292 295 299 298 297 297 298 298 299 299 297 293 293 294 293 292 291 289 283 279
310 310 311 312 313 314 315 314 313 312 311 310 309 309 307 306 304 301 298 296 294 290 289 288 288 287 287 289 291 292 294 296 300 301 301 301 301 302 301 299 297 296 296 296 298 300 301 300 300 299 296 292 291 294 297 300 299 296 295 295 296 298 299 298 295 293 292 292 291 291 291 289 285 282
314 313 312 313 314 315 316 317 318 317 316 315 313 311 309 307 305 304 302 300 298 296 293 291 289 287 286 285 284 285 287 290 295 297 296 296 296 297 298 300 302 304 301 298 298 298 298 297 298 298 297 294 293 297 300 299 294 291 290 291 292 297 299 297 295 295 294 293 292 291 290 287 283 279
316 316 316 315 316 316 317 318 318 319 319 318 317 316 314 311 309 307 305 303 302 301 299 297 295 293 290 286 283 282 282 284 287 288 289 290 292 293 293 294 298 301 300 297 295 293 292 293 295 296 296 296 297 300 300 295 290 287 288 290 292 294 296 295 294 293 292 292 293 292 289 287 284 280
314 316 316 316 317 318 319 320 320 319 319 318 317 316 315 313 312 310 308 307 305 303 302 301 300 298 296 293 290 287 285 283 283 282 283 286 289 291 292 291 291 291 291 292 290 288 289 291 294 294 294 296 299 299 294 290 288 287 289 293 295 295 294 293 293 292 291 291 293 291 287 286 287 284
313 314 315 315 316 317 318 319 319 318 318 317 316 315 314 313 313 312 310 309 307 306 304 303 301 300 299 297 296 294 291 287 284 282 281 281 283 285 287 287 287 286 286 286 287 287 289 292 295 295 296 298 300 297 290 288 289 289 290 292 296 296 294 292 291 291 290 289 290 289 286 284 283 281
312 312 313 314 315 315 315 315 316 316 316 315 314 314 313 312 312 311 310 310 308 307 306 304 302 301 300 299 298 297 295 292 289 287 284 282 280 280 282 282 283 282 282 282 284 287 290 292 292 294 295 296 296 295 293 292 292 291 290 292 295 296 294 292 291 291 289 286 286 286 285 282 278 277
310 311 312 312 313 313 314 314 315 315 315 314 312 311 310 310 309 309 309 309 308 307 306 304 302 301 300 299 299 298 297 296 294 292 290 286 282 280 281 282 282 283 282 282 283 285 287 288 289 291 292 292 292 292 291 290 290 291 291 292 294 293 293 293 293 292 289 287 285 284 285 283 280 279
306 307 308 309 310 311 313 315 316 316 315 314 312 310 308 307 307 306 307 307 307 307 306 304 302 301 300 300 299 298 298 297 296 295 294 291 287 284 282 282 283 284 283 284 285 285 284 284 284 285 286 288 289 290 289 288 289 290 290 290 290 289 290 291 292 290 287 284 283 285 286 286 284 283